Location: Burtsch�tz
(51.0528°N, 12.1764°E)
Time: 01:42:16
(UTC+00:00)

NOSS 3-4 (C) - Pass Details

Date: 29 October 2020
Orbit: 886 x 1326 km, 63.4° (Epoch: 06 November)

Event Time Altitude Azimuth Distance (km) Brightness Sun altitude
Rises 17:52:38 0° 314° (NW) 3,756 7.3 -19.7°
Reaches altitude 10° 17:55:08 10° 316° (NW) 2,860 6.6 -20.1°
Maximum altitude 18:01:58 76° 43° (NE) 1,169 3.7 -21.2°
Enters shadow 18:05:43 33° 123° (ESE) 1,884 4.5 -21.8°
